Time,TemperatureF,DewpointF,PressureIn,WindDirection,WindDirectionDegrees,WindSpeedMPH,WindSpeedGustMPH,Humidity,HourlyPrecipIn,Conditions,Clouds,dailyrainin,SoftwareType,DateUTC
2013-05-24 00:03:00,69.0,68.0,29.85,SSW,205,2.0,3.0,98,0.00,,,0.39,,2013-05-24 04:03:00,
2013-05-24 00:12:00,69.0,68.0,29.85,SSW,205,2.0,3.0,98,0.00,,,0.39,,2013-05-24 04:12:00,
2013-05-24 00:23:00,69.0,68.0,29.85,SW,222,0.0,3.0,98,0.00,,,0.39,,2013-05-24 04:23:00,
2013-05-24 00:33:00,69.0,68.0,29.86,WSW,241,1.0,4.0,98,0.00,,,0.39,,2013-05-24 04:33:00,
2013-05-24 00:42:00,69.0,68.0,29.86,WSW,241,1.0,4.0,98,0.00,,,0.39,,2013-05-24 04:42:00,
2013-05-24 00:53:00,69.0,68.0,29.86,WNW,298,1.0,6.0,98,0.00,,,0.39,,2013-05-24 04:53:00,
2013-05-24 01:02:00,68.0,67.0,29.86,West,278,3.0,6.0,97,0.00,,,0.39,,2013-05-24 05:02:00,
2013-05-24 01:12:00,68.0,67.0,29.86,West,278,3.0,6.0,97,0.00,,,0.39,,2013-05-24 05:12:00,
2013-05-24 01:22:00,68.0,67.0,29.86,West,278,3.0,6.0,97,0.00,,,0.39,,2013-05-24 05:22:00,
2013-05-24 01:32:00,66.0,65.0,29.85,NNW,327,1.0,4.0,95,0.00,,,0.39,,2013-05-24 05:32:00,
2013-05-24 01:42:00,66.0,65.0,29.85,NNW,327,1.0,4.0,95,0.00,,,0.39,,2013-05-24 05:42:00,
2013-05-24 01:52:00,66.0,65.0,29.84,WSW,245,0.0,2.0,96,0.00,,,0.39,,2013-05-24 05:52:00,
2013-05-24 02:02:00,65.0,64.0,29.84,WNW,294,1.0,4.0,97,0.00,,,0.39,,2013-05-24 06:02:00,
2013-05-24 02:12:00,65.0,64.0,29.84,WNW,294,1.0,4.0,97,0.00,,,0.39,,2013-05-24 06:12:00,
2013-05-24 02:21:00,65.0,64.0,29.83,West,270,2.0,4.0,97,0.00,,,0.39,,2013-05-24 06:21:00,
2013-05-24 02:32:00,65.0,64.0,29.82,SSW,204,1.0,2.0,97,0.00,,,0.39,,2013-05-24 06:32:00,
2013-05-24 02:42:00,65.0,64.0,29.82,SSW,204,1.0,2.0,97,0.00,,,0.39,,2013-05-24 06:42:00,
2013-05-24 02:52:00,64.0,63.0,29.83,West,262,1.0,5.0,97,0.00,,,0.39,,2013-05-24 06:52:00,
2013-05-24 03:01:00,64.0,63.0,29.83,NW,311,3.0,4.0,97,0.00,,,0.39,,2013-05-24 07:01:00,
2013-05-24 03:11:00,64.0,63.0,29.83,NW,311,3.0,4.0,97,0.00,,,0.39,,2013-05-24 07:11:00,
2013-05-24 03:22:00,64.0,63.0,29.83,WSW,258,0.0,6.0,97,0.00,,,0.39,,2013-05-24 07:22:00,
2013-05-24 03:32:00,64.0,63.0,29.82,WNW,300,0.0,2.0,97,0.00,,,0.39,,2013-05-24 07:32:00,
2013-05-24 03:42:00,64.0,63.0,29.82,WNW,300,0.0,2.0,97,0.00,,,0.39,,2013-05-24 07:42:00,
2013-05-24 03:52:00,63.0,62.0,29.82,West,262,0.0,1.0,97,0.00,,,0.39,,2013-05-24 07:52:00,
2013-05-24 04:02:00,63.0,62.0,29.82,WNW,300,0.0,0.0,98,0.00,,,0.39,,2013-05-24 08:02:00,
2013-05-24 04:11:00,63.0,62.0,29.82,WNW,300,0.0,0.0,98,0.00,,,0.39,,2013-05-24 08:11:00,
2013-05-24 04:22:00,63.0,62.0,29.82,NW,319,0.0,1.0,98,0.00,,,0.39,,2013-05-24 08:22:00,
2013-05-24 04:33:00,63.0,62.0,29.83,NNW,342,1.0,3.0,98,0.00,,,0.39,,2013-05-24 08:33:00,
2013-05-24 04:42:00,63.0,62.0,29.83,NNW,342,1.0,3.0,98,0.00,,,0.39,,2013-05-24 08:42:00,
2013-05-24 04:52:00,64.0,63.0,29.83,NW,322,1.0,3.0,98,0.00,,,0.39,,2013-05-24 08:52:00,
2013-05-24 05:02:00,64.0,63.0,29.83,NW,317,2.0,3.0,98,0.00,,,0.39,,2013-05-24 09:02:00,
2013-05-24 05:11:00,64.0,63.0,29.83,NW,317,2.0,3.0,98,0.00,,,0.39,,2013-05-24 09:11:00,
2013-05-24 05:22:00,63.0,62.0,29.83,North,354,0.0,3.0,97,0.00,,,0.39,,2013-05-24 09:22:00,
2013-05-24 05:32:00,63.0,62.0,29.83,NNW,347,1.0,3.0,97,0.00,,,0.39,,2013-05-24 09:32:00,
2013-05-24 05:42:00,63.0,62.0,29.83,NNW,347,1.0,3.0,97,0.00,,,0.39,,2013-05-24 09:42:00,
2013-05-24 05:53:00,63.0,62.0,29.83,NW,317,1.0,2.0,97,0.00,,,0.39,,2013-05-24 09:53:00,
2013-05-24 06:03:00,63.0,62.0,29.83,WNW,293,1.0,2.0,97,0.00,,,0.39,,2013-05-24 10:03:00,
2013-05-24 06:12:00,63.0,62.0,29.83,WNW,293,1.0,2.0,97,0.00,,,0.39,,2013-05-24 10:12:00,
2013-05-24 06:22:00,63.0,62.0,29.84,WNW,292,1.0,4.0,97,0.00,,,0.39,,2013-05-24 10:22:00,
2013-05-24 06:33:00,64.0,63.0,29.85,NW,314,3.0,6.0,96,0.00,,,0.39,,2013-05-24 10:33:00,
2013-05-24 06:42:00,64.0,63.0,29.85,NW,314,3.0,6.0,96,0.00,,,0.39,,2013-05-24 10:42:00,
2013-05-24 06:53:00,64.0,63.0,29.85,WNW,285,2.0,5.0,95,0.00,,,0.39,,2013-05-24 10:53:00,
2013-05-24 07:02:00,64.0,63.0,29.85,WNW,285,2.0,5.0,95,0.00,,,0.39,,2013-05-24 11:02:00,
2013-05-24 07:12:00,64.0,63.0,29.85,WNW,285,2.0,5.0,95,0.00,,,0.39,,2013-05-24 11:12:00,
2013-05-24 07:22:00,64.0,62.0,29.86,NW,324,2.0,5.0,94,0.00,,,0.39,,2013-05-24 11:22:00,
2013-05-24 07:32:00,65.0,63.0,29.87,NNW,336,2.0,4.0,93,0.00,,,0.39,,2013-05-24 11:32:00,
2013-05-24 07:42:00,65.0,63.0,29.87,NNW,336,2.0,4.0,93,0.00,,,0.39,,2013-05-24 11:42:00,
2013-05-24 07:52:00,65.0,62.0,29.87,NW,318,2.0,7.0,91,0.00,,,0.39,,2013-05-24 11:52:00,
2013-05-24 08:02:00,65.0,63.0,29.87,WNW,298,1.0,5.0,92,0.00,,,0.39,,2013-05-24 12:02:00,
2013-05-24 08:11:00,65.0,63.0,29.87,WNW,298,1.0,5.0,92,0.00,,,0.39,,2013-05-24 12:11:00,
2013-05-24 08:22:00,66.0,63.0,29.87,NNW,347,3.0,6.0,89,0.00,,,0.39,,2013-05-24 12:22:00,
2013-05-24 08:32:00,66.0,63.0,29.88,NW,321,2.0,7.0,89,0.00,,,0.39,,2013-05-24 12:32:00,
2013-05-24 08:42:00,66.0,63.0,29.88,NW,321,2.0,7.0,89,0.00,,,0.39,,2013-05-24 12:42:00,
2013-05-24 08:52:00,66.0,63.0,29.89,WNW,283,2.0,7.0,89,0.00,,,0.39,,2013-05-24 12:52:00,
2013-05-24 09:02:00,66.0,63.0,29.89,NW,326,3.0,6.0,89,0.00,,,0.39,,2013-05-24 13:02:00,
2013-05-24 09:11:00,66.0,63.0,29.89,NW,326,3.0,6.0,89,0.00,,,0.39,,2013-05-24 13:11:00,
2013-05-24 09:22:00,66.0,62.0,29.90,NNW,333,3.0,6.0,87,0.00,,,0.39,,2013-05-24 13:22:00,
2013-05-24 09:32:00,67.0,63.0,29.90,North,11,5.0,8.0,86,0.00,,,0.39,,2013-05-24 13:32:00,
2013-05-24 09:42:00,67.0,63.0,29.90,North,11,5.0,8.0,86,0.00,,,0.39,,2013-05-24 13:42:00,
2013-05-24 09:52:00,67.0,62.0,29.91,North,360,3.0,9.0,85,0.00,,,0.39,,2013-05-24 13:52:00,
2013-05-24 10:01:00,68.0,63.0,29.91,North,1,3.0,9.0,83,0.00,,,0.39,,2013-05-24 14:01:00,
2013-05-24 10:11:00,68.0,63.0,29.91,North,1,3.0,9.0,83,0.00,,,0.39,,2013-05-24 14:11:00,
2013-05-24 10:21:00,71.0,63.0,29.91,NNW,328,8.0,13.0,75,0.00,,,0.39,,2013-05-24 14:21:00,
2013-05-24 10:32:00,71.0,62.0,29.92,NW,316,7.0,12.0,73,0.00,,,0.39,,2013-05-24 14:32:00,
2013-05-24 10:42:00,71.0,62.0,29.92,NW,316,7.0,12.0,73,0.00,,,0.39,,2013-05-24 14:42:00,
2013-05-24 10:52:00,71.0,61.0,29.93,WNW,287,9.0,18.0,70,0.00,,,0.39,,2013-05-24 14:52:00,
2013-05-24 11:02:00,71.0,60.0,29.94,WSW,253,6.0,14.0,69,0.00,,,0.39,,2013-05-24 15:02:00,
2013-05-24 11:11:00,71.0,60.0,29.94,WSW,253,6.0,14.0,69,0.00,,,0.39,,2013-05-24 15:11:00,
2013-05-24 11:22:00,72.0,60.0,29.94,NNW,344,9.0,16.0,67,0.00,,,0.39,,2013-05-24 15:22:00,
2013-05-24 11:33:00,73.0,60.0,29.95,NNW,332,7.0,19.0,63,0.00,,,0.39,,2013-05-24 15:33:00,
2013-05-24 11:43:00,73.0,60.0,29.95,NNW,332,7.0,19.0,63,0.00,,,0.39,,2013-05-24 15:43:00,
2013-05-24 11:52:00,73.0,60.0,29.95,NNW,332,7.0,19.0,63,0.00,,,0.39,,2013-05-24 15:52:00,
2013-05-24 12:03:00,72.0,57.0,29.96,NW,320,9.0,19.0,59,0.00,,,0.39,,2013-05-24 16:03:00,
2013-05-24 12:13:00,72.0,57.0,29.96,NW,320,9.0,19.0,59,0.00,,,0.39,,2013-05-24 16:13:00,
2013-05-24 12:22:00,72.0,56.0,29.97,NNW,329,10.0,24.0,57,0.00,,,0.39,,2013-05-24 16:22:00,
2013-05-24 12:32:00,72.0,54.0,29.97,NW,321,9.0,19.0,54,0.00,,,0.39,,2013-05-24 16:32:00,
2013-05-24 12:42:00,72.0,54.0,29.97,NW,321,9.0,19.0,54,0.00,,,0.39,,2013-05-24 16:42:00,
2013-05-24 12:52:00,72.0,55.0,29.98,NNW,330,10.0,21.0,56,0.00,,,0.39,,2013-05-24 16:52:00,
2013-05-24 13:02:00,72.0,56.0,29.98,NNW,329,9.0,18.0,58,0.00,,,0.39,,2013-05-24 17:02:00,
2013-05-24 13:12:00,72.0,56.0,29.98,NNW,329,9.0,18.0,58,0.00,,,0.39,,2013-05-24 17:12:00,
2013-05-24 13:22:00,72.0,56.0,29.98,NW,321,8.0,19.0,57,0.00,,,0.39,,2013-05-24 17:22:00,
2013-05-24 13:32:00,71.0,55.0,29.98,NW,315,11.0,18.0,57,0.00,,,0.39,,2013-05-24 17:32:00,
2013-05-24 13:42:00,71.0,55.0,29.98,NW,315,11.0,18.0,57,0.00,,,0.39,,2013-05-24 17:42:00,
2013-05-24 13:52:00,71.0,55.0,29.98,NNE,15,9.0,18.0,57,0.00,,,0.39,,2013-05-24 17:52:00,
2013-05-24 14:01:00,70.0,54.0,29.99,West,281,9.0,18.0,57,0.00,,,0.39,,2013-05-24 18:01:00,
2013-05-24 14:12:00,70.0,54.0,29.99,West,281,9.0,18.0,57,0.00,,,0.39,,2013-05-24 18:12:00,
2013-05-24 14:22:00,70.0,53.0,30.00,WNW,290,11.0,20.0,55,0.00,,,0.30,,2013-05-24 18:22:00,
2013-05-24 14:32:00,70.0,52.0,30.00,NNW,329,9.0,18.0,53,0.00,,,0.30,,2013-05-24 18:32:00,
2013-05-24 14:42:00,70.0,52.0,30.00,NNW,329,9.0,18.0,53,0.00,,,0.30,,2013-05-24 18:42:00,
2013-05-24 14:52:00,70.0,52.0,30.00,NW,324,5.0,13.0,53,0.00,,,0.30,,2013-05-24 18:52:00,
2013-05-24 15:01:00,70.0,50.0,30.01,NNW,338,10.0,18.0,50,0.00,,,0.30,,2013-05-24 19:01:00,
2013-05-24 15:11:00,70.0,50.0,30.01,NNW,338,10.0,18.0,50,0.00,,,0.30,,2013-05-24 19:11:00,
2013-05-24 15:21:00,70.0,49.0,30.01,NNW,340,8.0,17.0,48,0.00,,,0.10,,2013-05-24 19:21:00,
2013-05-24 15:32:00,70.0,49.0,30.01,NNW,333,7.0,20.0,48,0.00,,,0.10,,2013-05-24 19:32:00,
2013-05-24 15:42:00,70.0,49.0,30.01,NNW,333,7.0,20.0,48,0.00,,,0.10,,2013-05-24 19:42:00,
2013-05-24 15:52:00,70.0,49.0,30.02,NW,304,10.0,16.0,47,0.00,,,0.10,,2013-05-24 19:52:00,
2013-05-24 16:02:00,70.0,48.0,30.02,NW,321,11.0,19.0,46,0.00,,,0.10,,2013-05-24 20:02:00,
2013-05-24 16:12:00,70.0,48.0,30.02,NW,321,11.0,19.0,46,0.00,,,0.10,,2013-05-24 20:12:00,
2013-05-24 16:22:00,69.0,46.0,30.02,NE,56,7.0,20.0,43,0.00,,,0.00,,2013-05-24 20:22:00,
2013-05-24 16:32:00,70.0,46.0,30.02,NW,315,7.0,18.0,43,0.00,,,0.00,,2013-05-24 20:32:00,
2013-05-24 16:42:00,70.0,46.0,30.02,NW,315,7.0,18.0,43,0.00,,,0.00,,2013-05-24 20:42:00,
2013-05-24 16:52:00,69.0,46.0,30.03,WNW,301,8.0,22.0,43,0.00,,,0.00,,2013-05-24 20:52:00,
2013-05-24 17:01:00,69.0,44.0,30.03,NW,321,11.0,19.0,41,0.00,,,0.00,,2013-05-24 21:01:00,
2013-05-24 17:11:00,69.0,44.0,30.03,NW,321,11.0,19.0,41,0.00,,,0.00,,2013-05-24 21:11:00,
2013-05-24 17:21:00,69.0,46.0,30.03,North,358,6.0,15.0,44,0.00,,,0.00,,2013-05-24 21:21:00,
2013-05-24 17:33:00,69.0,45.0,30.04,North,352,6.0,16.0,42,0.00,,,0.00,,2013-05-24 21:33:00,
2013-05-24 17:42:00,69.0,45.0,30.04,North,352,6.0,16.0,42,0.00,,,0.00,,2013-05-24 21:42:00,
2013-05-24 17:53:00,69.0,46.0,30.04,NW,325,7.0,18.0,43,0.00,,,0.00,,2013-05-24 21:53:00,
2013-05-24 18:03:00,69.0,45.0,30.05,NE,35,8.0,15.0,42,0.00,,,0.00,,2013-05-24 22:03:00,
2013-05-24 18:12:00,69.0,45.0,30.05,NE,35,8.0,15.0,42,0.00,,,0.00,,2013-05-24 22:12:00,
2013-05-24 18:22:00,68.0,45.0,30.05,NNW,345,8.0,13.0,44,0.00,,,0.00,,2013-05-24 22:22:00,
2013-05-24 18:33:00,68.0,45.0,30.05,NNW,345,8.0,13.0,44,0.00,,,0.00,,2013-05-24 22:33:00,
2013-05-24 18:42:00,68.0,45.0,30.05,NNW,345,8.0,13.0,44,0.00,,,0.00,,2013-05-24 22:42:00,
2013-05-24 18:52:00,67.0,43.0,30.06,NNW,338,7.0,18.0,41,0.00,,,0.00,,2013-05-24 22:52:00,
2013-05-24 19:02:00,67.0,41.0,30.06,WNW,290,8.0,17.0,39,0.00,,,0.00,,2013-05-24 23:02:00,
2013-05-24 19:11:00,67.0,41.0,30.06,WNW,290,8.0,17.0,39,0.00,,,0.00,,2013-05-24 23:11:00,
2013-05-24 19:22:00,67.0,41.0,30.07,NNW,328,8.0,17.0,38,0.00,,,0.00,,2013-05-24 23:22:00,
2013-05-24 19:32:00,66.0,41.0,30.08,NW,314,7.0,12.0,40,0.00,,,0.00,,2013-05-24 23:32:00,
2013-05-24 19:42:00,66.0,41.0,30.08,NW,314,7.0,12.0,40,0.00,,,0.00,,2013-05-24 23:42:00,
2013-05-24 19:52:00,66.0,42.0,30.08,North,354,6.0,10.0,41,0.00,,,0.00,,2013-05-24 23:52:00,
2013-05-24 20:01:00,64.0,42.0,30.09,North,11,5.0,11.0,44,0.00,,,0.00,,2013-05-25 00:01:00,
2013-05-24 20:12:00,64.0,42.0,30.09,North,11,5.0,11.0,44,0.00,,,0.00,,2013-05-25 00:12:00,
2013-05-24 20:22:00,63.0,42.0,30.09,NW,322,4.0,8.0,47,0.00,,,0.00,,2013-05-25 00:22:00,
2013-05-24 20:32:00,62.0,43.0,30.10,NNW,338,2.0,8.0,49,0.00,,,0.00,,2013-05-25 00:32:00,
2013-05-24 20:42:00,62.0,43.0,30.10,NNW,338,2.0,8.0,49,0.00,,,0.00,,2013-05-25 00:42:00,
2013-05-24 20:52:00,61.0,44.0,30.11,North,354,3.0,5.0,53,0.00,,,0.00,,2013-05-25 00:52:00,
2013-05-24 21:01:00,60.0,44.0,30.11,NNW,342,2.0,4.0,55,0.00,,,0.00,,2013-05-25 01:01:00,
2013-05-24 21:11:00,60.0,44.0,30.11,NNW,342,2.0,4.0,55,0.00,,,0.00,,2013-05-25 01:11:00,
2013-05-24 21:22:00,59.0,44.0,30.12,NNE,20,1.0,2.0,57,0.00,,,0.00,,2013-05-25 01:22:00,
2013-05-24 21:32:00,58.0,44.0,30.13,NNE,22,1.0,2.0,60,0.00,,,0.00,,2013-05-25 01:32:00,
2013-05-24 21:42:00,58.0,44.0,30.13,NNE,22,1.0,2.0,60,0.00,,,0.00,,2013-05-25 01:42:00,
2013-05-24 21:52:00,58.0,45.0,30.13,NNW,336,1.0,3.0,62,0.00,,,0.00,,2013-05-25 01:52:00,
2013-05-24 22:02:00,58.0,45.0,30.13,NNW,336,1.0,3.0,62,0.00,,,0.00,,2013-05-25 02:02:00,
2013-05-24 22:12:00,58.0,45.0,30.13,NNW,336,1.0,3.0,62,0.00,,,0.00,,2013-05-25 02:12:00,
2013-05-24 22:21:00,57.0,45.0,30.15,NE,41,0.0,2.0,63,0.00,,,0.00,,2013-05-25 02:21:00,
2013-05-24 22:32:00,55.0,45.0,30.16,NE,41,0.0,1.0,69,0.00,,,0.00,,2013-05-25 02:32:00,
2013-05-24 22:42:00,55.0,45.0,30.16,NE,41,0.0,1.0,69,0.00,,,0.00,,2013-05-25 02:42:00,
2013-05-24 22:52:00,55.0,45.0,30.16,North,352,1.0,2.0,69,0.00,,,0.00,,2013-05-25 02:52:00,
2013-05-24 23:02:00,55.0,44.0,30.17,NNW,338,2.0,4.0,66,0.00,,,0.00,,2013-05-25 03:02:00,
2013-05-24 23:11:00,55.0,44.0,30.17,NNW,338,2.0,4.0,66,0.00,,,0.00,,2013-05-25 03:11:00,
2013-05-24 23:22:00,55.0,44.0,30.17,NNW,348,1.0,3.0,66,0.00,,,0.00,,2013-05-25 03:22:00,
2013-05-24 23:32:00,55.0,44.0,30.17,NNW,348,1.0,3.0,66,0.00,,,0.00,,2013-05-25 03:32:00,
2013-05-24 23:43:00,55.0,44.0,30.17,NNW,348,1.0,3.0,66,0.00,,,0.00,,2013-05-25 03:43:00,
2013-05-24 23:53:00,55.0,44.0,30.17,NNW,340,3.0,4.0,66,0.00,,,0.00,,2013-05-25 03:53:00,